This is the latest recevied weather packets stored in our database for station/object PP5ABU-13. If no packets are shown the sender has not sent any weather packets the latest 10 day(s).
| Time | Temp. | Humidity | Pressure | Rain* | Wind** | Luminosity | Snow |
|---|---|---|---|---|---|---|---|
| 1777878004 | 17.22° C | 87% | 1017.5 hPa | 0 mm | - | - | - |
| 1777877104 | 17.22° C | 86% | 1017.5 hPa | 0 mm | - | - | - |
| 1777876205 | 17.22° C | 86% | 1017.9 hPa | 0 mm | - | - | - |
| 1777875304 | 17.22° C | 87% | 1018 hPa | 0 mm | - | - | - |
| 1777874405 | 17.22° C | 89% | 1018 hPa | 0 mm | - | - | - |
| 1777873504 | 16.67° C | 90% | 1017.9 hPa | 0 mm | - | - | - |
| 1777872604 | 16.67° C | 91% | 1018.1 hPa | 0 mm | - | - | - |
| 1777871704 | 16.67° C | 91% | 1018.5 hPa | 0 mm | - | - | - |
| 1777870804 | 16.67° C | 92% | 1019 hPa | 0 mm | - | - | - |
| 1777869904 | 16.11° C | 92% | 1019.5 hPa | 0 mm | - | - | - |
| 1777869004 | 16.11° C | 92% | 1019.4 hPa | 0 mm | - | - | - |
| 1777868104 | 15.56° C | 92% | 1019.5 hPa | 0 mm | - | - | - |
| 1777867204 | 15.56° C | 92% | 1019.4 hPa | 0 mm | - | - | - |
| 1777866304 | 15.56° C | 91% | 1019.7 hPa | 0 mm | - | - | - |
| 1777865404 | 15.56° C | 91% | 1019.4 hPa | 0 mm | - | - | - |
| 1777864504 | 15.56° C | 90% | 1019.8 hPa | 0 mm | - | - | - |
| 1777863605 | 16.11° C | 88% | 1019.9 hPa | 0 mm | - | - | - |
| 1777862704 | 16.11° C | 87% | 1020.2 hPa | 0 mm | - | - | - |
| 1777861805 | 16.11° C | 86% | 1020.2 hPa | 0 mm | - | - | - |
| 1777860904 | 16.67° C | 85% | 1020.3 hPa | 0 mm | - | - | - |
| 1777860004 | 17.22° C | 84% | 1020.4 hPa | 0 mm | - | - | - |
| 1777859104 | 17.22° C | 83% | 1020.4 hPa | 0 mm | - | - | - |
| 1777858204 | 17.22° C | 83% | 1020.6 hPa | 0 mm | - | - | - |
| 1777857304 | 17.22° C | 83% | 1020.7 hPa | 0 mm | - | - | - |
| 1777856404 | 17.22° C | 82% | 1020.7 hPa | 0 mm | - | - | - |
* Rain latest hour (hover to see other rain measurements)
** Current wind speed in m/s (hover to see current wind gust speed)